• Processing (Info)

  • MPEC 2022-B109 : 2022 BM3

    The following Minor Planet Electronic Circular may be linked-to from your own Web pages, but must not otherwise be redistributed electronically.

    A form allowing access to any MPEC is at the bottom of this page.


    Read MPEC 2022-B108 Read MPEC 2022-B110


    M.P.E.C. 2022-B109                             Issued 2022 January 29, 13:19 UT
    
         The Minor Planet Electronic Circulars contain information on unusual
             minor planets and routine data on comets.  They are published
        on behalf of Division F of the International Astronomical Union by the
              Minor Planet Center, Smithsonian Astrophysical Observatory,
                              Cambridge, MA 02138, U.S.A.
    
                 Prepared using the Tamkin Foundation Computer Network
    
                                  MPC@CFA.HARVARD.EDU
                URL https://www.minorplanetcenter.net/    ISSN 1523-6714
    
                                    2022 BM3                                 
    
    
    Observations:
         K22B03M* C2022 01 26.24008007 50 29.48 +12 55 12.8          20.20GVEB109G96
         K22B03M  C2022 01 26.24572207 50 34.02 +12 53 19.0          20.24GVEB109G96
         K22B03M  C2022 01 26.25136007 50 38.54 +12 51 24.9          20.00GVEB109G96
         K22B03M mC2022 01 26.31585007 51 28.29 +12 30 00.9          20.14GVEB109I52
         K22B03M mC2022 01 26.31621207 51 28.54 +12 29 53.6          19.62GVEB109I52
         K22B03M mC2022 01 26.31693607 51 29.09 +12 29 39.8          19.98GVEB109I52
         K22B03M KC2022 01 27.22644008 03 22.24 +08 51 19.1          20.60GVEB109I52
         K22B03M KC2022 01 27.22752308 03 22.64 +08 51 07.8          21.53GVEB109I52
         K22B03M KC2022 01 27.22860708 03 22.94 +08 50 56.5          21.04GVEB109I52
         K22B03M KC2022 01 27.22969208 03 23.38 +08 50 45.8          20.72GVEB109I52
         K22B03M KC2022 01 28.40387908 10 55.17 +06 15 57.8          21.31GVEB109I52
         K22B03M KC2022 01 28.41001808 10 56.35 +06 15 21.3          21.73GVEB109I52
         K22B03M KC2022 01 29.18750408 14 39.64 +05 10 12.9          21.6 VuEB109H21
         K22B03M KC2022 01 29.19185008 14 40.08 +05 09 54.3          21.6 VuEB109H21
    
    Observer details:
    G96 Mt. Lemmon Survey.  Observer K. W. Wierzchos.  Measurers E. J.
        Christensen, G. A. Farneth, D. C. Fuls, A. R. Gibbs, A. D. Grauer, H.
        Groeller, R. A. Kowalski, S. M. Larson, G. J. Leonard, D. Rankin, R. L.
        Seaman, A. Serrano, F. C. Shelly, K. W. Wierzchos.  1.5-m reflector + 10K
        CCD.
    H21 Astronomical Research Observatory, Westfield.  Observer R. Holmes.
        Measurers T. Linder, R. Holmes, L. Horn.  1.3-m f/4.0 astrograph + CCD.
    I52 Steward Observatory, Mt. Lemmon Station.  Observers E. J. Christensen, A.
        R. Gibbs.  Measurers E. J. Christensen, G. A. Farneth, J. B. Fazekas, D.
        C. Fuls, A. R. Gibbs, A. D. Grauer, H. Groeller, R. A. Kowalski, S. M.
        Larson, G. J. Leonard, D. Rankin, R. L. Seaman, A. Serrano, F. C. Shelly,
        K. W. Wierzchos.
    
    Orbital elements:
    2022 BM3                                                 Earth MOID = 0.0021 AU
    Epoch 2022 Jan. 21.0 TT = JDT 2459600.5                 Veres                   
    M  43.77357              (2000.0)            P               Q                  
    n   0.81221746     Peri.  105.88074     +0.63041199     -0.77375358             
    a   1.1376827      Node   304.87016     +0.67997192     +0.58916984             
    e   0.2592940      Incl.    4.35761     +0.37445816     +0.23277522             
    P   1.21           H   29.50          G   0.15           U   6                  
    Residuals in seconds of arc
    220126 G96  0.2+  0.7-    220126 I52  0.2-  0.5+    220128 I52  0.2-  0.4-
    220126 G96  0.0   0.0     220127 I52  0.1+  0.3-    220128 I52  0.4+  0.1+
    220126 G96  0.1+  0.1+    220127 I52  0.4+  0.2-    220129 H21  0.1-  0.5+
    220126 I52  0.0   0.3+    220127 I52  0.8-  0.2-    220129 H21  0.0   0.1+
    220126 I52  0.2-  0.1+    220127 I52  0.1+  0.4+
    
    Ephemeris:
    2022 BM3                 a,e,i = 1.14, 0.26, 4                   q = 0.8427
    Date    TT    R. A. (2000) Decl.     Delta      r    Elong.  Phase     V
    2021 12 30    20 28 39.6 -00 47 14   0.1125  0.8941    35.4   140.4    31.4
    ...
    2022 01 14    20 40 03.3 +03 00 19   0.04336 0.9456    28.3   150.4    31.1
    ...
    2022 01 22    21 22 13.2 +16 36 02   0.0089810.9772    39.9   139.7    26.0
    ...
    2022 01 28    08 08 56.3 +07 03 07   0.01787 1.0022   166.3    13.4    21.5
    2022 01 29    08 13 51.0 +05 27 43   0.02215 1.0064   165.3    14.4    22.1
    2022 01 30    08 17 09.8 +04 23 52   0.02647 1.0106   164.5    15.1    22.5
    ...
    2022 02 05    08 25 52.3 +01 52 39   0.05286 1.0362   161.6    17.5    24.1
    ...
    2022 02 13    08 30 49.7 +01 15 45   0.08967 1.0708   157.9    20.3    25.4
    ...
    2022 02 28    08 39 50.3 +01 42 16   0.1658  1.1355   148.8    26.9    27.1
    
    M. P. C. Staff               (C) Copyright 2022 MPC           M.P.E.C. 2022-B109
    


    Read MPEC 2022-B108 Read MPEC 2022-B110


    MPEC number:

    Enter an MPEC number in one of the following forms:

    • 1997-B01 (the full form)
    • J97B01 (the packed version of the full form)
    • B01 (the abbreviated form)